Regional Weather Roundup
Issued by NWS

Home | Current Version | Previous Version | Text Only | Print | Product List | Glossary On
Versions: 1 2 3 4 5 6 7 8 9 10 11 12 13 14 15 16 17 18 19 20 21 22 23 24 25 26 27 28 29 30 31 32 33 34 35 36 37 38 39 40 41 42 43 44 45 46 47 48 49 50
000
ASUS44 KJAN 051810
RWRMS

MISSISSIPPI HOURLY WEATHER ROUNDUP
NATIONAL WEATHER SERVICE JACKSON MS
100 PM CDT TUE MAY 05 2015

NOTE: "FAIR: INDICATES FEW OR NO CLOUDS BELOW 12,000 FEET WITH NO
SIGNIFICANT WEATHER AND/OR OBSTRUCTIONS TO VISIBILITY.

MSZ001>002-007>008-010>013-018>021-025>028-034>036-051900-
NORTHWEST MISSISSIPPI

CITY           SKY/WX    TMP DP  RH WIND       PRES   REMARKS
CLARKSDALE     FAIR      82  55  39 SE14G20   30.19F
CLEVELAND      FAIR      82  57  42 SE12G21   30.18F
GREENWOOD      MOSUNNY   82  53  36 SE14G21   30.20F
6HR MIN TEMP:  62; 6HR MAX TEMP:  83;

GREENVILLE     MOSUNNY   86  54  33 S16G23    30.16F
6HR MIN TEMP:  65; 6HR MAX TEMP:  86;

OLIVE BRANCH   MOSUNNY   82  54  36 SE9       30.21F
OXFORD         LGT RAIN  81  52  36 SE9       30.23F
TUNICA         PTCLDY    81  50  34 S12G21    30.20F
$$

MSZ003>006-009-014>017-022>024-029>033-037>039-051900-
NORTHEAST MISSISSIPPI

CITY           SKY/WX    TMP DP  RH WIND       PRES   REMARKS
COLUMBUS AFB   SUNNY     87  52  30 S8        30.22F
6HR MIN TEMP:  58; 6HR MAX TEMP:  87;

CORINTH        FAIR      82  54  36 SE5G12    30.23F
GOLDN TRIANGLE SUNNY     81  55  41 SE8       30.23F
STARKVILLE     MOCLDY    79  54  41 SE7       30.22F
TUPELO         MOSUNNY   83  49  30 S8        30.23F
6HR MIN TEMP:  59; 6HR MAX TEMP:  83;

$$

MSZ040-058-051900-
CENTRAL MISSISSIPPI

CITY           SKY/WX    TMP DP  RH WIND       PRES   REMARKS
JACKSON INTL   PTSUNNY   83  54  36 SE15G23   30.19F
6HR MIN TEMP:  61; 6HR MAX TEMP:  83;

JACKSON HAWKNS MOSUNNY   82  55  39 SE9G23    30.19F
6HR MIN TEMP:  61; 6HR MAX TEMP:  82;

MERIDIAN KEY   MOSUNNY   81  54  39 E14G20    30.21F
6HR MIN TEMP:  56; 6HR MAX TEMP:  83;

MERIDIAN NAS   MOSUNNY   82  53  36 VRB5G17   30.22F
6HR MIN TEMP:  56; 6HR MAX TEMP:  84;

RAYMOND        FAIR      81  75  83 S14       30.18F
VICKSBURG      MOSUNNY   82  59  45 SE14G22   30.17F
6HR MIN TEMP:  64; 6HR MAX TEMP:  83;

$$

MSZ059>079-051900-
SOUTH MISSISSIPPI

CITY           SKY/WX    TMP DP  RH WIND       PRES   REMARKS
BROOKHAVEN     FAIR      79  61  53 SE8       30.20F
HATTIESBURG    MOSUNNY   83  57  41 SE14      30.19F
6HR MIN TEMP:  56; 6HR MAX TEMP:  83;

MCCOMB         MOSUNNY   81  60  48 SE12G25   30.18F
6HR MIN TEMP:  62; 6HR MAX TEMP:  82;

NATCHEZ        MOSUNNY   81  61  50 SE14G20   30.16F
6HR MIN TEMP:  63; 6HR MAX TEMP:  81;

PINE BELT      MOSUNNY   82  55  39 E10       30.21F
6HR MIN TEMP:  59; 6HR MAX TEMP:  82;

$$

MSZ080>082-051900-
COASTAL MISSISSIPPI

CITY           SKY/WX    TMP DP  RH WIND       PRES   REMARKS
BAY ST LOUIS   MOSUNNY   77  63  61 MISG      30.19F
BILOXI         SUNNY     80  67  64 SE14G22   30.18F
6HR MIN TEMP:  67; 6HR MAX TEMP:  81;

PASCAGOULA     MOSUNNY   81  66  60 SE13G21   30.19F
6HR MIN TEMP:  64; 6HR MAX TEMP:  81;

GULFPORT       MOSUNNY   79  65  62 SE18      30.18F
6HR MIN TEMP:  66; 6HR MAX TEMP:  80;

$$


USA.gov is the U.S. government's official web portal to all federal, state and local government web resources and services.